Dewpoint
71 71 71 71 72 72 72 71 71 72 72 72 71 71 71 70 71 72 71 74 75 75 76 76 75 75 75 74 73 74 75 74 74 73 73 74 74 75 75 74 74 74 73
72 70 71 70 69 69 70 71 70 71 72 71 72 71 70 70 70 70 71 72 76 75 75 76 76 76 75 74 75 75 75 75 76 75 75 75 75 75 74 74 74 73 74
71 70 71 69 70 71 71 72 72 72 72 72 72 71 71 70 68 68 70 71 72 76 75 76 77 77 76 76 75 75 75 75 76 75 75 75 75 75 75 74 74 74 74
70 71 71 70 71 71 72 72 72 71 71 71 70 69 69 71 70 69 69 71 71 73 75 76 76 76 76 75 76 76 76 76 76 76 75 75 75 74 74 74 74 74 74
71 71 71 71 71 71 72 72 72 72 71 69 69 71 70 70 72 72 69 70 72 73 72 75 75 76 75 75 75 76 76 76 76 76 76 76 75 75 75 75 74 74 74
70 71 71 71 71 71 71 70 68 72 72 70 71 70 71 71 71 71 72 70 72 73 73 73 75 75 76 76 76 76 77 77 76 76 76 76 76 75 75 75 75 75 74
69 70 69 68 70 70 69 69 70 68 67 71 69 69 68 68 71 71 71 72 73 73 73 72 72 72 73 77 76 76 77 77 77 77 76 76 76 76 75 75 75 75 75
70 70 68 68 68 70 69 71 70 69 70 70 65 66 64 66 68 69 71 72 72 73 73 73 72 73 73 73 75 76 75 77 77 77 77 76 76 76 75 75 75 75 75
70 71 70 69 68 71 69 67 70 69 68 69 69 67 64 62 65 68 68 71 71 71 70 67 67 72 73 73 73 74 76 75 76 77 77 77 77 77 76 76 75 75 75
71 70 70 71 70 71 70 71 70 70 69 67 69 71 68 67 64 61 66 69 70 69 69 70 72 71 68 68 70 72 74 74 75 76 76 77 77 77 77 77 76 75 75
72 72 71 71 71 71 70 71 71 70 71 70 69 68 68 68 66 63 64 65 68 69 70 69 71 70 69 68 69 70 73 73 73 75 75 76 77 77 77 77 77 76 76
72 72 73 72 72 72 71 71 72 70 70 70 70 70 68 67 65 64 64 64 63 65 68 69 70 72 72 70 71 72 71 71 70 70 73 75 76 77 77 77 77 76 76
71 72 72 72 73 72 72 72 71 71 70 70 70 70 71 70 68 66 66 63 65 66 67 68 69 70 71 71 70 72 72 70 69 69 71 73 74 75 76 77 77 77 76
70 70 71 72 72 73 72 72 71 71 71 70 70 70 69 69 70 69 67 65 63 63 66 64 67 69 71 72 72 72 70 70 70 70 70 71 72 72 73 75 75 75 75
72 71 71 72 72 73 72 72 72 71 71 71 70 70 70 70 70 70 69 68 65 63 63 65 66 69 70 72 73 72 71 70 70 70 70 70 70 71 72 72 72 73 73
72 72 71 72 72 72 72 72 71 71 71 72 72 71 70 70 70 69 69 69 68 66 64 65 67 69 69 70 71 71 71 71 70 70 70 69 69 70 70 71 71 71 71
72 72 72 71 71 71 72 71 71 71 71 71 71 72 71 72 71 70 69 70 70 68 66 68 70 68 69 68 70 70 70 72 72 69 69 68 68 68 69 70 69 69 70
70 71 71 71 71 71 72 71 71 72 71 71 71 71 71 72 71 71 70 70 70 69 68 67 70 69 70 70 70 69 70 70 73 70 68 67 67 67 67 67 67 67 67
70 69 68 70 71 71 71 72 72 72 72 72 71 71 70 71 70 71 71 70 69 69 69 68 67 70 71 70 69 69 69 70 74 72 68 67 66 66 66 65 65 64 63
68 68 69 70 69 69 70 72 72 72 72 72 72 72 71 71 71 71 70 70 69 68 68 67 66 66 68 69 70 69 68 69 69 73 71 69 68 67 66 65 65 65 62
67 68 69 69 70 70 70 70 71 71 71 71 72 72 72 72 71 70 71 71 70 69 68 66 66 65 65 67 68 68 67 67 67 68 68 69 69 69 69 67 68 67 64
65 66 67 67 68 69 67 67 68 67 67 68 68 71 72 72 71 69 68 69 70 70 68 67 66 65 65 66 67 68 67 65 63 67 66 64 68 67 69 69 68 66 64
63 64 65 66 66 67 66 65 67 68 68 67 67 69 71 71 71 72 69 67 67 67 69 70 67 66 65 66 67 66 65 64 64 66 65 63 65 65 66 70 66 65 64
59 61 63 64 65 66 64 64 65 66 66 67 67 67 68 69 71 71 71 72 71 70 69 70 70 69 68 68 69 69 68 66 65 66 66 65 67 68 68 70 66 65 64
57 58 61 64 64 64 63 63 64 66 66 67 68 68 68 69 67 66 70 70 71 71 68 65 66 66 65 65 68 69 68 66 65 67 69 67 67 67 68 68 68 62 61
56 58 59 60 61 63 61 61 63 65 65 66 67 67 66 66 61 60 64 68 70 70 70 70 67 66 65 66 65 70 69 67 66 65 68 68 67 67 66 67 67 64 62
Lifted_Index
-1 -1 -1 -1 -1 -1 -2 -2 -2 -2 -2 -2 -3 -3 -3 -3 -2 -2 -2 -3 -4 -4 -5 -5 -6 -5 -5 -5 -5 -6 -6 -6 -6 -5 -5 -5 -6 -6 -6 -6 -5 -5 -5
-2 -1 -1 -1 -1 -1 -1 -2 -2 -2 -2 -2 -3 -3 -3 -3 -3 -2 -2 -3 -4 -4 -4 -5 -6 -6 -5 -5 -5 -6 -6 -6 -6 -6 -6 -6 -6 -6 -6 -6 -5 -5 -5
-2 -2 -2 -2 -2 -2 -2 -2 -3 -3 -2 -2 -3 -3 -3 -3 -3 -3 -2 -3 -3 -4 -5 -5 -6 -6 -6 -5 -5 -6 -6 -6 -6 -6 -6 -6 -6 -6 -6 -5 -5 -5 -5
-3 -3 -2 -2 -3 -3 -3 -3 -3 -3 -3 -3 -3 -3 -3 -3 -3 -3 -3 -3 -3 -4 -4 -5 -5 -6 -6 -5 -5 -6 -6 -6 -6 -6 -6 -5 -5 -5 -5 -5 -5 -5 -5
-3 -3 -3 -3 -3 -3 -4 -4 -4 -3 -3 -3 -3 -3 -3 -3 -4 -4 -4 -3 -3 -4 -4 -5 -5 -6 -6 -5 -6 -6 -6 -6 -6 -6 -6 -5 -5 -5 -5 -5 -5 -5 -5
-3 -3 -3 -3 -3 -4 -4 -4 -3 -3 -3 -3 -3 -3 -3 -3 -3 -4 -4 -4 -4 -4 -4 -4 -5 -5 -5 -5 -6 -6 -6 -7 -6 -6 -6 -6 -6 -5 -5 -5 -5 -5 -5
-2 -3 -3 -3 -3 -3 -3 -3 -3 -3 -3 -3 -3 -3 -3 -3 -3 -3 -4 -4 -4 -4 -4 -4 -4 -4 -5 -5 -5 -6 -6 -7 -7 -7 -7 -6 -6 -6 -5 -5 -5 -5 -5
-2 -3 -3 -3 -3 -3 -3 -3 -3 -3 -3 -3 -3 -3 -3 -2 -3 -3 -4 -4 -4 -4 -4 -3 -3 -4 -4 -4 -5 -5 -6 -6 -6 -7 -7 -7 -6 -6 -6 -5 -5 -5 -5
-3 -3 -3 -3 -3 -3 -3 -3 -3 -3 -3 -3 -3 -3 -3 -3 -3 -3 -3 -3 -3 -3 -3 -2 -3 -4 -4 -4 -4 -4 -5 -5 -6 -6 -7 -7 -7 -7 -6 -6 -5 -5 -5
-4 -4 -4 -3 -3 -3 -3 -3 -3 -3 -3 -3 -3 -3 -3 -3 -3 -2 -2 -2 -3 -3 -2 -1 -2 -4 -4 -4 -3 -3 -4 -5 -5 -5 -6 -7 -7 -7 -7 -6 -6 -6 -5
-5 -5 -4 -4 -4 -3 -3 -3 -4 -3 -3 -3 -3 -3 -3 -3 -3 -2 -2 -2 -2 -2 -2 -2 -2 -3 -3 -3 -2 -2 -3 -4 -4 -5 -5 -6 -7 -7 -7 -7 -6 -6 -6
-6 -5 -5 -5 -4 -4 -4 -4 -4 -4 -3 -4 -4 -4 -3 -3 -3 -3 -3 -2 -2 -2 -2 -1 -2 -2 -3 -2 -2 -1 -2 -2 -3 -4 -4 -5 -6 -6 -6 -6 -7 -6 -6
-5 -5 -5 -5 -5 -5 -4 -4 -4 -3 -3 -4 -4 -4 -4 -3 -3 -3 -3 -2 -2 -2 -2 -1 -2 -2 -2 -2 -2 -1 -1 -1 -2 -3 -3 -4 -4 -4 -5 -6 -6 -6 -6
-5 -5 -5 -5 -5 -5 -4 -4 -4 -4 -4 -4 -4 -4 -4 -3 -3 -3 -2 -2 -2 -2 -2 -2 -2 -2 -2 -2 -2 -2 -1 -1 -2 -3 -3 -3 -3 -3 -4 -4 -5 -5 -6
-6 -6 -5 -5 -5 -5 -5 -4 -4 -4 -4 -4 -4 -4 -4 -3 -3 -3 -2 -2 -2 -2 -2 -2 -2 -2 -2 -2 -2 -2 -2 -2 -2 -3 -3 -3 -2 -2 -3 -3 -3 -4 -4
-6 -6 -6 -5 -5 -5 -5 -4 -4 -4 -4 -4 -4 -4 -4 -4 -3 -3 -3 -3 -3 -2 -2 -2 -2 -3 -2 -2 -2 -2 -2 -2 -2 -3 -3 -3 -2 -2 -2 -2 -2 -3 -3
-5 -5 -5 -5 -5 -5 -5 -5 -5 -4 -4 -4 -4 -4 -4 -4 -4 -4 -4 -3 -3 -3 -2 -2 -3 -3 -2 -2 -2 -2 -2 -2 -2 -3 -3 -3 -2 -2 -3 -2 -2 -2 -2
-4 -4 -5 -5 -5 -5 -5 -6 -5 -5 -5 -5 -4 -4 -4 -4 -4 -4 -4 -4 -4 -3 -3 -3 -3 -3 -3 -3 -3 -3 -2 -3 -3 -3 -3 -3 -3 -3 -3 -2 -2 -2 -2
-2 -3 -3 -4 -4 -4 -5 -5 -5 -5 -5 -5 -5 -5 -5 -4 -4 -5 -4 -4 -4 -4 -3 -3 -3 -3 -3 -3 -3 -3 -3 -3 -4 -4 -4 -4 -3 -3 -3 -3 -2 -2 -2
-1 -2 -2 -3 -3 -4 -4 -5 -5 -5 -5 -5 -5 -5 -5 -5 -5 -5 -5 -5 -4 -4 -4 -4 -3 -3 -3 -3 -3 -3 -3 -3 -4 -4 -4 -4 -4 -3 -3 -3 -3 -3 -3
-0 -1 -2 -3 -3 -4 -4 -5 -5 -5 -5 -5 -5 -5 -5 -5 -5 -5 -5 -5 -5 -4 -4 -4 -3 -3 -2 -2 -2 -2 -2 -3 -3 -4 -4 -4 -3 -3 -3 -2 -2 -3 -3
1 0 -1 -2 -2 -3 -4 -4 -4 -4 -4 -4 -4 -4 -5 -5 -6 -5 -5 -5 -5 -5 -5 -4 -4 -3 -2 -2 -1 -1 -2 -2 -3 -3 -3 -3 -3 -2 -2 -2 -2 -3 -3
2 2 1 0 -1 -2 -2 -3 -3 -3 -3 -3 -3 -3 -4 -5 -5 -5 -5 -5 -5 -5 -5 -5 -4 -4 -3 -2 -2 -2 -2 -3 -3 -3 -3 -3 -3 -2 -2 -2 -2 -3 -4
4 3 2 1 1 -0 -1 -2 -2 -2 -3 -3 -3 -3 -4 -4 -5 -5 -5 -5 -5 -5 -5 -5 -5 -5 -4 -3 -3 -3 -3 -3 -3 -3 -3 -3 -3 -3 -3 -3 -3 -3 -4
6 5 3 3 2 1 0 -0 -1 -1 -2 -2 -3 -3 -4 -4 -4 -4 -5 -5 -6 -6 -5 -5 -5 -5 -4 -4 -3 -3 -3 -4 -4 -3 -3 -3 -3 -3 -3 -3 -3 -3 -4
7 6 4 3 3 2 1 1 0 -1 -1 -2 -2 -3 -3 -3 -3 -3 -4 -5 -5 -6 -6 -5 -5 -5 -5 -4 -4 -4 -4 -4 -4 -3 -3 -3 -3 -3 -3 -3 -3 -3 -3